Flag for U.S.A. Weather past 2 weeks in Billings, Montana, U.S.A.

Now
32 °F

Clear.


Feels Like: 26 °F
Forecast: 29 / 49 °F
Wind: 7 mph from Southwest

Location: Billings Logan International Airport

Current Time: Jan 29, 2015 at 4:28:04 AM

Latest Report: Jan 29, 2015 at 3:53 AM


Visibility: 10 mi

Pressure: 30.47 "Hg

Humidity: 75%

Dew point: 25 °F

Location of BillingsLocation

Historic Weather in Billings — Graph

°F

Billings temperature yesterday

Maximum temperature yesterday: 54 °F (at 11:53 AM)
Minimum temperature yesterday: 35 °F (at 11:53 PM)
Average temperature yesterday: 47 °F

Past Weeks' High & Low Weather Summary

 TemperatureHumidityPressure
High66 °F (Jan 27, 1:53 PM)85% (Jan 14, 2:53 AM)30.47 "Hg (Jan 14, 2:53 AM)
Low21 °F (Jan 14, 2:53 AM)26% (Jan 27, 12:53 PM)29.76 "Hg (Jan 16, 12:53 PM)
Average40 °F52%30.11 "Hg
* Reported Jan 14 2:53 AM — Jan 29 2:53 AM, Billings, Weather by CustomWeather, © 2014

Note: Actual official high and low records may vary slightly from our data, if they occured in-between our weather recording intervals... More about our weather records

Advertising

Billings weather history for previous 24 hours

 ConditionsComfort  
Time TempWeatherWind HumidityBarometerVisibility
2:53 AM
Jan 29
33 °FClear.6 mph75%30.47 "Hg10 mi
1:53 AM36 °FPassing clouds.6 mph70%30.45 "Hg10 mi
12:53 AM37 °FPassing clouds.5 mph70%30.45 "Hg10 mi
11:53 PM
Jan 28
35 °FPassing clouds.No wind72%30.46 "Hg10 mi
10:53 PM38 °FPassing clouds.No wind68%30.45 "Hg10 mi
9:53 PM40 °FPartly cloudy.No wind60%30.43 "Hg10 mi
8:53 PM38 °FMostly cloudy.No wind63%30.41 "Hg10 mi
7:53 PM41 °FPartly cloudy.No wind55%30.39 "Hg10 mi
6:53 PM40 °FPassing clouds.5 mph60%30.36 "Hg10 mi
5:53 PM42 °FPassing clouds.6 mph62%30.34 "Hg10 mi
4:53 PM45 °FOvercast.15 mph56%30.30 "Hg10 mi
3:53 PM47 °FPartly sunny.13 mph54%30.24 "Hg10 mi
2:53 PM50 °FPartly sunny.13 mph43%30.20 "Hg10 mi
1:53 PM52 °FPartly sunny.13 mph38%30.17 "Hg10 mi
12:53 PM54 °FPassing clouds.17 mph31%30.14 "Hg10 mi
11:53 AM54 °FPassing clouds.24 mph33%30.13 "Hg10 mi
10:53 AM50 °FScattered clouds.22 mph36%30.14 "Hg10 mi
9:53 AM50 °FPartly sunny.20 mph36%30.11 "Hg10 mi
8:53 AM49 °FPartly sunny.15 mph43%30.07 "Hg10 mi
7:53 AM49 °FPartly sunny.17 mph50%30.03 "Hg10 mi
6:53 AM52 °FOvercast.15 mph49%29.98 "Hg10 mi
5:53 AM52 °FOvercast.15 mph49%29.96 "Hg10 mi
4:53 AM47 °FOvercast.16 mph54%29.93 "Hg10 mi
Weather by CustomWeather, © 2014

See weather overviewHow to use our weather pages